Regional Weather Roundup
Issued by NWS Newport/Morehead, NC

Current Version | Previous Version | Text Only | Print | Product List | Glossary On
Versions: 1 2 3 4 5 6 7 8 9 10 11 12 13 14 15 16 17 18 19 20 21 22 23 24 25 26 27 28 29 30 31 32 33 34 35 36 37 38 39 40 41 42 43 44 45 46 47 48 49 50
077
ASUS42 KMHX 252226
RWRMHX
WEATHER ROUNDUP FOR EASTERN NORTH CAROLINA
NATIONAL WEATHER SERVICE NEWPORT/MOREHEAD CITY NC
600 PM EDT SUN JUN 25 2017

NOTE: "FAIR" INDICATES FEW OR NO CLOUDS BELOW 12,000 FEET
WITH NO SIGNIFICANT WEATHER AND/OR OBSTRUCTIONS TO VISIBILITY

NCZ015>017-031-032-045>047-102-103-252300-
NORTH COAST

CITY           SKY/WX    TMP DP  RH WIND       PRES   REMARKS
EDENTON        SUNNY     87  67  51 CALM      30.00S
ELIZABETH CITY PTSUNNY   83  74  74 NE9       29.99S
KITTY HAWK     PTCLDY    81  72  73 CALM      29.98S
MANTEO         NOT AVBL

$$

NCZ045>047-081-094-103-104-252300-
CENTRAL COAST

CITY           SKY/WX    TMP DP  RH WIND       PRES   REMARKS
FRISCO         CLOUDY    82  75  79 SW8       30.00F

$$

NCZ095-097-098-100-101-252300-
SOUTHERN COAST

CITY           SKY/WX    TMP DP  RH WIND       PRES   REMARKS
BEAUFORT       CLOUDY    81  78  91 SW8       30.02R
CEDAR ISLAND   NOT AVBL
JACKSONVILLE   CLOUDY    84  76  76 NW10      30.00R
PINEY ISLAND   MOCLDY   N/A N/A N/A W3        30.00S
WILMINGTON     CLOUDY    82  75  79 SW10      30.02R


$$

NCZ011>013-027>030-043-044-078>080-089-090>093-098-252300-
COASTAL PLAIN

CITY           SKY/WX    TMP DP  RH WIND       PRES   REMARKS
AHOSKIE          N/A     79  68  69 CALM      30.01S
CLINTON        MOSUNNY   84  70  61 CALM      30.03S
ELIZABETHTOWN  NOT AVBL
GOLDSBORO      NOT AVBL
GREENVILLE     MOSUNNY   86  64  48 NW3       30.03S
HAVELOCK       CLOUDY    82  72  71 E3        30.01S
KENANSVILLE    PTSUNNY   84  68  58 NW6       30.03R
KINSTON        MOSUNNY   84  68  58 W3        30.02S
NEW BERN       CLOUDY    85  72  65 NW6       30.02R
RICHLANDS      CLOUDY    84  74  71 NW3       30.02S
ROCKY MOUNT    MOSUNNY   83  64  52 W6        30.03S
WASHINGTON     SUNNY    N/A N/A N/A NW3       30.01S
WHITEVILLE     CLOUDY    83  74  74 CALM      30.02S

$$

AMZ130-135-150-152-154-156-158-170-250-252-270-ANZ085-086-088-633-658-670-252300-
MARINE OBSERVATIONS

STATION/POSITION TIME  TEMP    WIND        PRES    WAVE   SWELL
                       AIR SEA DIR/SP/G            HT/PER HT/PER
                 (UTC) (F)     (DEG/KT/KT) (MB)    (FT/S) (FT/S)
CHESAPEAKE LIGHT NOT AVBL
64 E VA BEACH    2150   75 76  210/  6/  6 1015.9    3/ 6   3/ 6
DUCK             2200   77 64  110/ 11/ 11 1015.0
2 E DUCK         NOT AVBL
OREGON INLET     2200   82 82  170/  5/  7 1015.5
13E OREGON INLT  2148      78                N/A     2/ 6   2/ 6
HATTERAS CG      2200   81 78  210/  5/  8 1015.6
DIAMOND BUOY     2150   79 81  240/  8/  8 1015.8    3/ 6   3/ 6
CAPE LOOKOUT     2200   80     230/  7/ 10 1015.8
BEAUFORT LAB     2200   80 80  240/  3/  8 1015.7
30 SE NEW RVR IN 2208   80 81  230/ 10/ 14 1016.3
30 SE NEW RVR IN 2143      81                N/A     4/ 6
27 SE WRIGHTSVLE 2208   79 81  230/ 16/ 19 1016.1
5 SE WRIGHTSVLE  2208   81 80  230/ 14/ 16 1016.3
225 S CAPE HAT   2150   81 81  220/ 12/ 14 1019.3    4/ 6   3/ 6
41 SE CHARLESTON 2210   80 81  220/  8/ 10 1017.1

$$




USA.gov is the U.S. government's official web portal to all federal, state and local government web resources and services.